Flag for Australia Weather past 2 weeks in Darwin, Northern Territory, Australia

Now
82 °F

Passing clouds.


Feels Like: 85 °F
Forecast: 76 / 88 °F
Wind: 5 mph from South

Location: Darwin Airport

Current Time: Sep 2, 2015 at 10:10:05 AM

Latest Report: Sep 2, 2015 at 9:30 AM


Visibility: N/A

Pressure: 30.01 "Hg

Humidity: 62%

Dew point: 68 °F

Location of DarwinLocation

Historic Weather in Darwin — Graph

°F

Darwin temperature yesterday

Maximum temperature yesterday: 90 °F (at 3:00 PM)
Minimum temperature yesterday: 73 °F (at 4:00 AM)
Average temperature yesterday: 80 °F

Past Weeks' High & Low Weather Summary

 TemperatureHumidityPressure
High91 °F (Aug 26, 1:30 PM)100% (Aug 22, 5:00 AM)30.04 "Hg (Aug 22, 5:00 AM)
Low61 °F (Aug 19, 6:30 AM)12% (Aug 19, 1:30 PM)29.86 "Hg (Aug 20, 4:00 PM)
Average78 °F69%29.95 "Hg
* Reported Aug 18 8:30 AM — Sep 2 8:30 AM, Darwin, Weather by CustomWeather, © 2015

Note: Actual official high and low records may vary slightly from our data, if they occured in-between our weather recording intervals... More about our weather records

Advertising

Darwin weather history for previous 24 hours

 ConditionsComfort  
Time TempWeatherWind HumidityBarometerVisibility
8:30 AM
Wed, Sep 2
79 °FPassing clouds.2 mph79%30.01 "HgN/A
8:00 AM77 °FPassing clouds.5 mph83%30.01 "HgN/A
7:00 AM70 °FPassing clouds.3 mph94%29.98 "HgN/A
6:30 AM72 °FFog.3 mph94%29.95 "HgN/A
5:30 AM73 °FPassing clouds.5 mph89%29.95 "HgN/A
4:30 AM75 °FPassing clouds.6 mph83%29.92 "HgN/A
4:00 AM75 °FPassing clouds.6 mph83%29.95 "HgN/A
3:30 AM73 °FPassing clouds.2 mph89%29.92 "HgN/A
3:00 AM73 °FPassing clouds.No wind89%29.92 "HgN/A
2:30 AM73 °FPassing clouds.5 mph89%29.95 "HgN/A
2:00 AM73 °FPassing clouds.3 mph89%29.95 "HgN/A
1:30 AM75 °FClear.2 mph83%29.95 "Hg10 mi
12:30 AM77 °FClear.6 mph83%29.95 "Hg10 mi
12:00 AM79 °FClear.6 mph74%29.95 "Hg10 mi
11:30 PM
Tue, Sep 1
79 °FClear.7 mph74%29.95 "Hg10 mi
11:00 PM79 °FClear.8 mph74%29.95 "Hg10 mi
10:30 PM79 °FClear.8 mph74%29.95 "Hg10 mi
10:00 PM79 °FClear.9 mph74%29.95 "Hg10 mi
9:30 PM79 °FClear.9 mph79%29.95 "Hg10 mi
9:00 PM79 °FClear.9 mph79%29.92 "Hg10 mi
8:30 PM81 °FClear.12 mph70%29.92 "Hg10 mi
7:30 PM81 °FClear.14 mph70%29.89 "Hg10 mi
7:00 PM81 °FSunny.10 mph66%29.89 "Hg10 mi
6:30 PM82 °FSunny.12 mph58%29.86 "Hg10 mi
6:00 PM84 °FSunny.14 mph55%29.86 "Hg10 mi
5:30 PM86 °FSunny.15 mph43%29.86 "Hg10 mi
5:00 PM84 °FSunny.17 mph48%29.86 "Hg10 mi
4:30 PM88 °FSunny.13 mph40%29.86 "Hg10 mi
4:00 PM88 °FSunny.12 mph43%29.86 "Hg10 mi
3:30 PM90 °FSunny.13 mph33%29.86 "Hg10 mi
3:00 PM90 °FSunny.12 mph36%29.89 "Hg10 mi
2:30 PM86 °FScattered clouds.9 mph46%29.89 "HgN/A
2:00 PM86 °FPassing clouds.14 mph52%29.89 "HgN/A
1:00 PM88 °FPassing clouds.13 mph52%29.92 "HgN/A
12:30 PM84 °FPassing clouds.10 mph62%29.95 "HgN/A
12:00 PM84 °FScattered clouds.14 mph62%29.95 "HgN/A
11:30 AM86 °FScattered clouds.10 mph59%29.98 "HgN/A
11:00 AM86 °FScattered clouds.9 mph59%29.98 "HgN/A
10:30 AM84 °FScattered clouds.10 mph58%29.98 "HgN/A
10:00 AM84 °FScattered clouds.8 mph62%30.01 "HgN/A
Weather by CustomWeather, © 2015

See weather overviewHow to use our weather pages